Regional Weather Roundup
Issued by NWS

Home | Current Version | Previous Version | Text Only | Print | Product List | Glossary On
Versions: 1 2 3 4 5 6 7 8 9 10 11 12 13 14 15 16 17 18 19 20 21 22 23 24 25 26 27 28 29 30 31 32 33 34 35 36 37 38 39 40 41 42 43 44 45 46 47 48 49 50
000
ASUS45 KBOU 241207
RWRCO

WEATHER ROUNDUP FOR COLORADO
NATIONAL WEATHER SERVICE DENVER/BOULDER CO
600 AM MDT TUE MAY 24 2016

NOTE: "FAIR" INDICATES FEW OR NO CLOUDS BELOW 12000 FEET WITH NO
SIGNIFICANT WEATHER AND/OR OBSTRUCTIONS TO VISIBILITY.

COZ001>005-013-030-031-241300-
...NORTHWEST COLORADO...

CITY           SKY/WX    TMP DP  RH WIND       PRES   REMARKS
CRAIG          FAIR      31  28  89 CALM      29.93S
HAYDEN         FAIR      37  27  65 E8        29.93S
MEEKER         FAIR      35  29  78 CALM      29.92S
MOUNT WERNER   NOT AVBL
STEAMBOAT SPGS FAIR      34  28  76 CALM      29.96S
WALDEN         FAIR      28  23  80 SE8       30.04R WCI  20
$$

COZ006>008-011-241300-
...WEST CENTRAL VALLEYS...

CITY           SKY/WX    TMP DP  RH WIND       PRES   REMARKS
GRAND JUNCTION FAIR      49  25  39 SE15      29.84R
MONTROSE       FAIR      48  21  34 E3        29.95R
EAGLE          FAIR      34  25  69 CALM      30.03R
RIFLE          FAIR      37  29  72 E5        29.91R
DELTA          FAIR      50  24  37 N9        29.92R
NUCLA          FAIR      50  19  29 E9        29.98S
$$

COZ017>023-064>068-241300-
...SOUTHWEST COLORADO...

CITY           SKY/WX    TMP DP  RH WIND       PRES   REMARKS
DURANGO        FAIR      33  23  66 N3        30.03R
CORTEZ         FAIR      36  24  62 E7        29.98R
PAGOSA SPRINGS FAIR      37  23  56 CALM      30.08R
TELLURIDE      FAIR      46  12  26 E6        30.10S
WOLF CREEK PAS FAIR      28  12  50 SW18      30.24S WCI  16
$$

COZ009-010-012-014-032>034-037-058>063-241300-
...CENTRAL COLORADO...

CITY           SKY/WX    TMP DP  RH WIND       PRES   REMARKS
ASPEN          FAIR      42  20  41 SE9       30.00R
BUENA VISTA    FAIR      32  22  66 NE3       30.07R
COPPER MTN     NOT AVBL
BERTHOUD PASS  FAIR      30  19  64 SW12      30.22R WCI  21
COTTONWOOD PAS FAIR      45  12  26 SE5       30.12R
GUNNISON       FAIR      30  21  69 CALM      30.09S
KREMMLING      FAIR      30  27  86 CALM      30.05R
LEADVILLE      FAIR      28  16  60 CALM      30.11R
MONARCH PASS   FAIR      32  14  47 MISG      30.31S
SALIDA         FAIR      38  22  52 CALM      30.12S
SUNLIGHT       FAIR      36  19  51 CALM      30.15S
WILKERSON PASS FAIR      34  18  51 SW6       30.19S WCI  29
$$

COZ069>075-241300-
...SAN LUIS VALLEY/SANGRE DE CRISTO MOUNTAINS...

CITY           SKY/WX    TMP DP  RH WIND       PRES   REMARKS
ALAMOSA        FAIR      37  23  56 SW7       30.05R
LA VETA PASS   FAIR      39  14  35 S7        30.16R
SAGUACHE       FAIR      34  21  60 NW12      30.07S WCI  25
$$

COZ035-036-038>040-241300-
...NORTHERN COLORADO FRONT RANGE...

CITY           SKY/WX    TMP DP  RH WIND       PRES   REMARKS
DENVER INTL AP FAIR      45  40  82 SW9       29.95R
DMNS CITY PARK   N/A     47  41  81 SE8       29.96R
AURORA         PTCLDY    42  40  96 S7        29.96R
FRONT RANGE AP NOT AVBL
ERIE MUNI ARPT FAIR      40  39  95 CALM      29.94S
BOULDER MUN AP FAIR      45  43  93 CALM      29.94R
CENTENNIAL     FAIR      42  37  82 S5        29.96R
BROOMFIELD     FAIR      46  39  76 NW8       29.95S
FORT COLLINS   FAIR      43  39  87 N5        29.95R
LONGMONT       FAIR      41  38  91 W3        29.96R
$$

COZ041-046-047-076>085-087-088-241300-
...PIKES PEAK/PALMER DIVIDE AND SOUTHERN FOOTHILLS...

CITY           SKY/WX    TMP DP  RH WIND       PRES   REMARKS
COLO. SPRINGS  MOCLDY    49  40  71 NW5       29.98R
A. F. ACADEMY  FAIR      41  37  87 N9        29.98R
SCHRIEVER AFB  NOT AVBL
ELLICOTT       FAIR     N/A N/A N/A NE7       29.95R
FALCON         FAIR      48  39  69 N5        30.00S
FORT CARSON    FAIR      48  39  71 N9        29.95R
LIMON          MOCLDY    49  42  77 N6        29.96R
MONUMENT HILL  FAIR      37  36  93 CALM      30.01S
TRINIDAD       FAIR      43  27  53 W8        29.94R
$$

COZ042>045-048>051-090-091-241300-
...NORTHEAST COLORADO...

CITY           SKY/WX    TMP DP  RH WIND       PRES   REMARKS
GREELEY ARPT   FAIR      43  37  81 CALM      29.94R
AKRON          CLOUDY    48  44  86 N5        29.94R
BURLINGTON     FAIR      53  41  63 NE10      29.92R
WRAY           MOCLDY    54  50  87 SE3       29.91R
STERLING       CLOUDY    46  45  93 CALM      29.93R
HOLYOKE        FAIR      54  46  76 CALM      29.92R
FORT MORGAN    CLOUDY    48  44  83 CALM      29.95R
$$

COZ086-089-092>099-241300-
...SOUTHEAST COLORADO...

CITY           SKY/WX    TMP DP  RH WIND       PRES   REMARKS
PUEBLO         FAIR      54  42  64 NW9       29.91R
LA JUNTA       CLOUDY    53  45  74 N6        29.90R
LAMAR          CLOUDY    55  49  80 N10       29.85R
SPRINGFIELD      N/A     48  40  73 W6        29.84R
$$



USA.gov is the U.S. government's official web portal to all federal, state and local government web resources and services.